Belen, NM

11:11 AM MST on December 16, 2017 (GMT -0700)
Belen

Weather History for KE80 - November, 2012

Change the Weather History Date:

Sunday, November 4, 2012

  Actual Average (KABQ) Record (KABQ)
Temperature  
Mean Temperature 52 °F -  
Max Temperature 71 °F 61 °F 83 °F (1915)
Min Temperature 34 °F 35 °F 17 °F (1936)
Degree Days  
Heating Degree Days 12    
Growing Degree Days 2 (Base 50)    
Moisture  
Dew Point 14 °F    
Average Humidity 24    
Maximum Humidity 40    
Minimum Humidity 12    
Precipitation  
Precipitation 0.00 in - - ()
Sea Level Pressure  
Sea Level Pressure 30.27 in    
Wind  
Wind Speed 4 mph (North)    
Max Wind Speed 10 mph    
Max Gust Speed -    
Visibility 10 miles    
Events      
Averages and records for this station are not official NWS values.
T = Trace of Precipitation, MM = Missing Value Source: NWS Daily Summary

Daily Weather History Graph

Daily Weather History Graph

Search for Another Location

Airport or City:

Trip Planner

Search our weather history database for the weather conditions in past years. The results will help you decide how hot, cold, wet, or windy it might be!

Date:

Astronomy

Nov. 04, 2012 Rise Set
Actual Time 6:31 AM MST 5:10 PM MST
Civil Twilight 6:04 AM MST 5:36 PM MST
Nautical Twilight 5:34 AM MST 6:06 PM MST
Astronomical Twilight 5:05 AM MST 6:35 PM MST
Moon 9:52 PM MST (11/4) 11:13 AM MST (11/4)
Length of Visible Light 11h 31m
Length of Day
10h 39m
Waning Gibbous, 71% of the Moon is Illuminated
Nov 4
Waning Gibbous
Nov 6
Last Quarter
Nov 13
New
Nov 20
First Quarter
Nov 28
Full

Hourly Weather History & Observations

Time (MST) Temp. Windchill Dew Point Humidity Pressure Visibility Wind Dir Wind Speed Gust Speed Precip Events Conditions
12:15 AM 48.6 °F - 21.7 °F 35% 30.23 in 10.0 mi Calm Calm - N/A   Clear
12:35 AM 47.7 °F - 20.7 °F 34% 30.23 in 10.0 mi Calm Calm - N/A   Clear
12:55 AM 43.3 °F 40.7 °F 19.4 °F 38% 30.25 in 10.0 mi NW 4.6 mph - N/A   Clear
1:15 AM 46.0 °F 43.9 °F 19.8 °F 35% 30.25 in 10.0 mi NNW 4.6 mph - N/A   Clear
1:35 AM 44.8 °F 41.0 °F 18.5 °F 35% 30.25 in 10.0 mi North 6.9 mph - N/A   Clear
1:55 AM 46.4 °F 43.5 °F 18.1 °F 32% 30.25 in 10.0 mi NNE 5.8 mph - N/A   Clear
1:15 AM 43.0 °F 40.3 °F 17.2 °F 36% 30.25 in 10.0 mi North 4.6 mph - N/A   Clear
1:35 AM 42.3 °F 37.3 °F 16.7 °F 36% 30.25 in 10.0 mi NNW 8.1 mph - N/A   Clear
1:55 AM 42.8 °F 37.0 °F 16.2 °F 34% 30.25 in 10.0 mi NNW 10.4 mph - N/A   Clear
2:15 AM 44.2 °F 39.2 °F 15.4 °F 31% 30.25 in 10.0 mi North 9.2 mph - N/A   Clear
2:35 AM 43.5 °F 38.9 °F 14.4 °F 31% 30.25 in 10.0 mi North 8.1 mph - N/A   Clear
2:55 AM 39.7 °F 34.3 °F 14.9 °F 36% 30.25 in 10.0 mi NW 8.1 mph - N/A   Clear
3:15 AM 41.4 °F 38.4 °F 15.4 °F 35% 30.25 in 10.0 mi NW 4.6 mph - N/A   Clear
3:35 AM 40.3 °F 35.5 °F 14.5 °F 35% 30.25 in 10.0 mi NW 6.9 mph - N/A   Clear
3:55 AM 39.6 °F 33.5 °F 14.0 °F 35% 30.26 in 10.0 mi NW 9.2 mph - N/A   Clear
4:15 AM 39.7 °F 34.9 °F 14.9 °F 36% 30.26 in 10.0 mi NNW 6.9 mph - N/A   Clear
4:35 AM 40.8 °F - 14.9 °F 35% 30.27 in 10.0 mi Calm Calm - N/A   Clear
4:55 AM 39.4 °F 36.1 °F 14.2 °F 36% 30.28 in 10.0 mi NNW 4.6 mph - N/A   Clear
5:15 AM 38.3 °F 33.2 °F 14.0 °F 37% 30.27 in 10.0 mi NW 6.9 mph - N/A   Clear
5:35 AM 40.5 °F 35.1 °F 13.3 °F 33% 30.28 in 10.0 mi NNW 8.1 mph - N/A   Clear
5:55 AM 38.3 °F 33.2 °F 13.3 °F 36% 30.28 in 10.0 mi NW 6.9 mph - N/A   Clear
6:15 AM 37.9 °F 33.5 °F 13.3 °F 36% 30.29 in 10.0 mi NNW 5.8 mph - N/A   Clear
6:35 AM 35.6 °F 29.9 °F 12.2 °F 38% 30.29 in 10.0 mi NW 6.9 mph - N/A   Clear
6:55 AM 34.9 °F 29.9 °F 12.6 °F 40% 30.30 in 10.0 mi NW 5.8 mph - N/A   Clear
7:15 AM 39.2 °F 35.0 °F 13.1 °F 34% 30.30 in 10.0 mi NNW 5.8 mph - N/A   Clear
7:35 AM 42.4 °F 40.7 °F 13.1 °F 30% 30.30 in 10.0 mi NNW 3.5 mph - N/A   Clear
7:55 AM 45.3 °F - 13.5 °F 28% 30.31 in 10.0 mi Calm Calm - N/A   Clear
8:15 AM 47.3 °F - 14.0 °F 26% 30.33 in 10.0 mi NNW 3.5 mph - N/A   Clear
8:35 AM 50.4 °F - 14.7 °F 24% 30.33 in 10.0 mi NNW 4.6 mph - N/A   Clear
8:55 AM 53.6 °F - 14.7 °F 21% 30.33 in 10.0 mi NW 5.8 mph - N/A   Clear
9:15 AM 54.7 °F - 14.9 °F 21% 30.33 in 10.0 mi NW 3.5 mph - N/A   Clear
9:35 AM 57.0 °F - 14.9 °F 19% 30.33 in 10.0 mi North 4.6 mph - N/A   Clear
9:55 AM 58.8 °F - 14.4 °F 18% 30.33 in 10.0 mi NNE 5.8 mph - N/A   Clear
10:15 AM 59.2 °F - 14.5 °F 17% 30.33 in 10.0 mi ENE 4.6 mph - N/A   Clear
10:35 AM 60.1 °F - 15.1 °F 17% 30.32 in 10.0 mi NNE 4.6 mph - N/A   Clear
10:55 AM 61.9 °F - 15.6 °F 17% 30.32 in 10.0 mi NE 4.6 mph - N/A   Clear
11:15 AM 62.6 °F - 15.6 °F 16% 30.30 in 10.0 mi Calm Calm - N/A   Clear
11:55 AM 65.7 °F - 15.6 °F 15% 30.28 in 10.0 mi NNE 3.5 mph - N/A   Clear
12:15 PM 66.4 °F - 16.0 °F 14% 30.27 in 10.0 mi East 4.6 mph - N/A   Clear
12:35 PM 66.4 °F - 16.2 °F 14% 30.26 in 10.0 mi North 4.6 mph - N/A   Clear
12:55 PM 67.6 °F - 16.5 °F 14% 30.26 in 10.0 mi Calm Calm - N/A   Clear
1:15 PM 68.2 °F - 16.5 °F 14% 30.25 in 10.0 mi Calm Calm - N/A   Clear
1:35 PM 69.1 °F - 16.7 °F 13% 30.24 in 10.0 mi ENE 3.5 mph - N/A   Clear
1:55 PM 69.6 °F - 16.7 °F 13% 30.23 in 10.0 mi WNW 3.5 mph - N/A   Clear
2:15 PM 70.7 °F - 17.1 °F 13% 30.23 in 10.0 mi Calm Calm - N/A   Clear
2:35 PM 70.5 °F - 16.5 °F 13% 30.22 in 10.0 mi Calm Calm - N/A   Clear
2:55 PM 70.7 °F - 16.5 °F 13% 30.22 in 10.0 mi North 3.5 mph - N/A   Clear
3:15 PM 70.9 °F - 16.7 °F 13% 30.22 in 10.0 mi NE 3.5 mph - N/A   Clear
3:35 PM 71.4 °F - 16.7 °F 12% 30.21 in 10.0 mi Calm Calm - N/A   Clear
3:55 PM 70.3 °F - 16.5 °F 13% 30.21 in 10.0 mi ENE 3.5 mph - N/A   Clear
4:15 PM 70.3 °F - 16.5 °F 13% 30.21 in 10.0 mi East 3.5 mph - N/A   Clear
4:35 PM 69.3 °F - 16.7 °F 13% 30.21 in 10.0 mi SSE 3.5 mph - N/A   Clear
4:55 PM 67.5 °F - 16.5 °F 14% 30.21 in 10.0 mi Calm Calm - N/A   Clear
5:15 PM 65.3 °F - 16.3 °F 15% 30.22 in 10.0 mi SE 4.6 mph - N/A   Clear
5:55 PM 60.8 °F - 14.7 °F 17% 30.23 in 10.0 mi Calm Calm - N/A   Clear
6:15 PM 58.5 °F - 13.6 °F 17% 30.24 in 10.0 mi Calm Calm - N/A   Clear
6:35 PM 56.1 °F - 12.4 °F 18% 30.25 in 10.0 mi NNW 6.9 mph - N/A   Clear
6:55 PM 57.7 °F - 10.4 °F 15% 30.25 in 10.0 mi North 3.5 mph - N/A   Clear
7:15 PM 55.8 °F - 8.6 °F 15% 30.26 in 10.0 mi NNW 6.9 mph - N/A   Clear
7:35 PM 49.6 °F - 6.8 °F 18% 30.25 in 10.0 mi NNW 8.1 mph - N/A   Clear
7:55 PM 52.0 °F - 7.3 °F 17% 30.26 in 10.0 mi NNE 6.9 mph - N/A   Clear
8:15 PM 56.5 °F - 9.3 °F 15% 30.27 in 10.0 mi North 9.2 mph - N/A   Clear
8:35 PM 53.6 °F - 8.8 °F 17% 30.28 in 10.0 mi NNE 6.9 mph - N/A   Clear
8:55 PM 50.9 °F - 8.1 °F 18% 30.29 in 10.0 mi NNE 3.5 mph - N/A   Clear
9:15 PM 50.2 °F - 7.5 °F 18% 30.29 in 10.0 mi North 3.5 mph - N/A   Clear
9:35 PM 48.2 °F - 7.7 °F 19% 30.29 in 10.0 mi NNW 3.5 mph - N/A   Clear
9:55 PM 47.7 °F - 7.3 °F 19% 30.29 in 10.0 mi Calm Calm - N/A   Clear
10:15 PM 45.3 °F - 7.0 °F 21% 30.29 in 10.0 mi Calm Calm - N/A   Clear
10:35 PM 47.1 °F - 7.5 °F 20% 30.29 in 10.0 mi NW 6.9 mph - N/A   Clear
10:55 PM 45.5 °F 40.8 °F 7.5 °F 21% 30.28 in 10.0 mi NW 9.2 mph - N/A   Clear